User: anonymous   Login
Location: Grand Lay
(47.3253°N, 0.9468°E)
Time: 10:05:54
(UTC+00:00)
Language:

Cosmos 407 Rocket - Orbit

View from above orbital plane
View from above orbital plane
View from above satellite
View from above satellite

Ground track
Ground track

The orbit is defined by the following mean orbital elements,

1 05175U          26071.17130641 +.00000000 +00000-0 +74530-4 0 00003
2 05175  74.0458  95.4747 0030612 234.9836 124.8445 14.39476726    08
Epoch (UTC): 12 March 2026 04:06:40
Eccentricity: 0.0030612
inclination: 74.0458°
perigee height: 738 km
apogee height: 782 km
right ascension of ascending node: 95.4747°
argument of perigee: 234.9836°
revolutions per day: 14.39476726
mean anomaly at epoch: 124.8445°

The dashed part of the orbit path shows where the satellite is in the earth's shadow,  

DLR